NJE791Q EDDF-LFMD

Flight info

Callsign NJE791Q
Flight time N/A
Altitude 41000
Route ANEKI2L ANEKI Y163 NATOR DCT TRA DCT RIPUS DCT GERSA DCT SOSON DCT ODINA DCT ENOBA/N0441F350 Z185 ASBOP/N0366F190 Z185 BORDI
Aircraft CL60/M-SBDE1E2E3FGHIJ1J4J5J7M3RWXYZ/LB1V1D1

Departure

Time 2026-04-17 10:23
Airport Frankfurt Main Airport (EDDF)

Arrival

Time N/A
Airport Cannes Mandelieu Airport (LFMD)
Time Latitude Longitude Altitude Speed Heading
2026-04-17 10:00 50.02286 8.53247 351 ft 0 kts 340°
2026-04-17 10:18 50.02289 8.53239 352 ft 3 kts 276°
2026-04-17 10:18 50.02264 8.53200 352 ft 7 kts 210°
2026-04-17 10:18 50.02208 8.53148 352 ft 11 kts 217°
2026-04-17 10:18 50.02158 8.53036 352 ft 14 kts 258°
2026-04-17 10:19 50.02146 8.52900 352 ft 13 kts 266°
2026-04-17 10:19 50.02171 8.52832 352 ft 8 kts 353°
2026-04-17 10:19 50.02238 8.52831 352 ft 10 kts
2026-04-17 10:19 50.02325 8.52832 352 ft 14 kts
2026-04-17 10:20 50.02433 8.52832 352 ft 17 kts 359°
2026-04-17 10:20 50.02564 8.52830 352 ft 20 kts
2026-04-17 10:20 50.02700 8.52829 352 ft 20 kts 360°
2026-04-17 10:20 50.02849 8.52827 352 ft 22 kts 359°
2026-04-17 10:21 50.02972 8.52825 352 ft 15 kts 360°
2026-04-17 10:21 50.03092 8.52823 352 ft 18 kts
2026-04-17 10:21 50.03208 8.52824 352 ft 14 kts
2026-04-17 10:21 50.03287 8.52814 352 ft 9 kts 317°
2026-04-17 10:22 50.03278 8.52731 352 ft 10 kts 254°
2026-04-17 10:22 50.03272 8.52638 352 ft 8 kts 272°
2026-04-17 10:22 50.03252 8.52603 352 ft 2 kts 181°
2026-04-17 10:22 50.03246 8.52604 352 ft 0 kts 178°
2026-04-17 10:23 50.03244 8.52604 352 ft 1 kts 178°
2026-04-17 10:23 50.03001 8.52606 352 ft 82 kts 180°
2026-04-17 10:23 50.02170 8.52613 377 ft 152 kts 180°
2026-04-17 10:23 50.01072 8.52615 1086 ft 158 kts 179°
2026-04-17 10:24 49.99905 8.52681 1668 ft 185 kts 176°
2026-04-17 10:24 49.98539 8.52823 2406 ft 205 kts 176°
2026-04-17 10:24 49.97086 8.52961 3304 ft 218 kts 176°
2026-04-17 10:24 49.95563 8.53104 4295 ft 228 kts 177°
2026-04-17 10:25 49.93964 8.53210 5288 ft 234 kts 178°
2026-04-17 10:25 49.92342 8.53287 6296 ft 237 kts 178°
2026-04-17 10:25 49.90689 8.53388 7305 ft 241 kts 178°
2026-04-17 10:25 49.89021 8.53488 8304 ft 245 kts 179°
2026-04-17 10:26 49.87318 8.53592 9306 ft 250 kts 179°
2026-04-17 10:26 49.85638 8.53696 10281 ft 255 kts 179°
2026-04-17 10:26 49.83861 8.53807 11291 ft 260 kts 179°
2026-04-17 10:26 49.82061 8.53920 12293 ft 265 kts 179°
2026-04-17 10:27 49.80206 8.54038 13306 ft 270 kts 179°
2026-04-17 10:27 49.78345 8.54130 14311 ft 275 kts 183°
2026-04-17 10:27 49.76372 8.53937 15162 ft 291 kts 187°
2026-04-17 10:27 49.74217 8.53639 15345 ft 332 kts 187°
2026-04-17 10:28 49.71837 8.53317 15969 ft 353 kts 187°
2026-04-17 10:28 49.69349 8.52984 16902 ft 363 kts 187°
2026-04-17 10:28 49.66814 8.52646 17922 ft 368 kts 187°
2026-04-17 10:28 49.64242 8.52305 18905 ft 374 kts 187°
2026-04-17 10:29 49.61654 8.51962 19834 ft 379 kts 187°
2026-04-17 10:29 49.59020 8.51613 20723 ft 385 kts 187°
2026-04-17 10:29 49.56329 8.51257 21599 ft 390 kts 187°
2026-04-17 10:29 49.53599 8.50897 22437 ft 395 kts 187°
2026-04-17 10:30 49.50849 8.50535 23235 ft 400 kts 187°
2026-04-17 10:30 49.48054 8.50168 24024 ft 405 kts 187°
2026-04-17 10:30 49.45217 8.49795 24808 ft 410 kts 187°
2026-04-17 10:30 49.42350 8.49419 25552 ft 415 kts 187°
2026-04-17 10:31 49.39458 8.49041 26270 ft 419 kts 187°
2026-04-17 10:31 49.36554 8.48662 26935 ft 423 kts 187°
2026-04-17 10:31 49.33602 8.48276 27578 ft 427 kts 187°
2026-04-17 10:31 49.30638 8.47890 28174 ft 431 kts 188°
2026-04-17 10:32 49.27623 8.47498 28729 ft 436 kts 188°
2026-04-17 10:32 49.24606 8.47105 29331 ft 438 kts 188°
2026-04-17 10:32 49.21547 8.46708 30060 ft 437 kts 188°
2026-04-17 10:32 49.18558 8.46320 30805 ft 434 kts 188°
2026-04-17 10:33 49.15555 8.45932 31527 ft 432 kts 188°
2026-04-17 10:33 49.12563 8.45544 32192 ft 430 kts 188°
2026-04-17 10:33 49.09576 8.45158 32815 ft 429 kts 188°
2026-04-17 10:33 49.06641 8.44746 33388 ft 426 kts 191°
2026-04-17 10:34 49.03739 8.43896 33912 ft 424 kts 197°
2026-04-17 10:34 49.00849 8.42872 34384 ft 424 kts 197°
2026-04-17 10:34 48.97988 8.41867 34829 ft 424 kts 197°
2026-04-17 10:34 48.95097 8.40855 35260 ft 423 kts 197°
2026-04-17 10:35 48.92240 8.39857 35669 ft 423 kts 197°
2026-04-17 10:35 48.89379 8.38859 36070 ft 422 kts 197°
2026-04-17 10:35 48.86511 8.37861 36482 ft 420 kts 197°
2026-04-17 10:35 48.83707 8.36888 36948 ft 419 kts 197°
2026-04-17 10:36 48.80848 8.35896 37414 ft 418 kts 198°
2026-04-17 10:36 48.78006 8.34901 37855 ft 416 kts 197°
2026-04-17 10:36 48.75198 8.33874 38250 ft 416 kts 198°
2026-04-17 10:36 48.72409 8.32850 38609 ft 416 kts 198°
2026-04-17 10:37 48.69566 8.31810 38931 ft 416 kts 198°
2026-04-17 10:37 48.66782 8.30792 39235 ft 416 kts 198°
2026-04-17 10:37 48.63955 8.29761 39529 ft 415 kts 198°
2026-04-17 10:37 48.61159 8.28742 39808 ft 415 kts 198°
2026-04-17 10:38 48.58371 8.27727 40068 ft 415 kts 198°
2026-04-17 10:38 48.55538 8.26698 40270 ft 415 kts 197°
2026-04-17 10:38 48.52729 8.25697 40461 ft 415 kts 195°
2026-04-17 10:38 48.49883 8.25068 40639 ft 419 kts 187°
2026-04-17 10:39 48.46952 8.25031 40814 ft 422 kts 179°
2026-04-17 10:39 48.44037 8.25573 40970 ft 424 kts 174°
2026-04-17 10:39 48.41102 8.26293 41105 ft 425 kts 174°
2026-04-17 10:39 48.38171 8.27004 41214 ft 427 kts 173°
2026-04-17 10:40 48.35215 8.27720 41208 ft 431 kts 173°
2026-04-17 10:40 48.29251 8.29161 41212 ft 440 kts 174°
2026-04-17 10:41 48.23161 8.30629 41210 ft 448 kts 173°
2026-04-17 10:41 48.16942 8.32127 41212 ft 455 kts 173°
2026-04-17 10:42 48.10672 8.33647 41213 ft 460 kts 173°
2026-04-17 10:42 48.04336 8.35183 41211 ft 461 kts 173°
2026-04-17 10:43 47.98035 8.36706 41217 ft 460 kts 173°
2026-04-17 10:43 47.91704 8.38233 41212 ft 458 kts 173°
2026-04-17 10:44 47.85416 8.39745 41212 ft 459 kts 173°
2026-04-17 10:44 47.79103 8.41259 41224 ft 459 kts 173°
2026-04-17 10:45 47.72801 8.42766 41218 ft 460 kts 173°
2026-04-17 10:45 47.66443 8.44099 41212 ft 459 kts 176°
2026-04-17 10:46 47.60074 8.45026 41211 ft 459 kts 176°
2026-04-17 10:46 47.53689 8.45960 41209 ft 458 kts 176°
2026-04-17 10:47 47.47359 8.46885 41198 ft 458 kts 176°
2026-04-17 10:47 47.41024 8.47810 41203 ft 458 kts 176°
2026-04-17 10:48 47.34679 8.48735 41202 ft 459 kts 176°
2026-04-17 10:48 47.28321 8.49661 41200 ft 459 kts 176°
2026-04-17 10:49 47.21968 8.50585 41199 ft 459 kts 176°
2026-04-17 10:49 47.15645 8.51504 41206 ft 459 kts 176°
2026-04-17 10:50 47.09270 8.52430 41199 ft 459 kts 176°
2026-04-17 10:50 47.02914 8.53350 41211 ft 458 kts 176°